Hourly Weather Starachowice

Today, 12 July, Sunday

Time Temperature Precipitation Wind Pressure Humidity
00:00 +11°C° 1 mm 1 mps 744 mmHg 96%
01:00 +11°C° 0 mm 1 mps 744 mmHg 94%
02:00 +11°C° 0.1 mm 1 mps 744 mmHg 94%
03:00 +11°C° 0.1 mm 1 mps 744 mmHg 95%
04:00 +10°C° 0.1 mm 2 mps 743 mmHg 95%
05:00 +12°C° 0 mm 2 mps 744 mmHg 91%
06:00 +13°C° 0 mm 2 mps 744 mmHg 88%
07:00 +14°C° 0 mm 2 mps 745 mmHg 83%
08:00 +15°C° 0 mm 2 mps 744 mmHg 74%
09:00 +17°C° 0 mm 3 mps 744 mmHg 65%
10:00 +18°C° 0 mm 3 mps 744 mmHg 56%
11:00 +19°C° 0.1 mm 3 mps 744 mmHg 55%
12:00 +19°C° 0.1 mm 3 mps 744 mmHg 55%
13:00 +20°C° 0.1 mm 3 mps 744 mmHg 55%
14:00 +20°C° 0.2 mm 3 mps 744 mmHg 56%
15:00 +19°C° 0.2 mm 4 mps 744 mmHg 58%
16:00 +19°C° 0.2 mm 4 mps 743 mmHg 59%
17:00 +18°C° 0.1 mm 3 mps 743 mmHg 65%
18:00 +17°C° 0.1 mm 3 mps 743 mmHg 72%
19:00 +16°C° 0.1 mm 2 mps 744 mmHg 78%
20:00 +14°C° 0 mm 2 mps 744 mmHg 80%
21:00 +13°C° 0 mm 2 mps 744 mmHg 83%
22:00 +12°C° 0 mm 2 mps 744 mmHg 85%
23:00 +12°C° 0 mm 2 mps 744 mmHg 86%

Tomorrow, 13 July, Monday

Time Temperature Precipitation Wind Pressure Humidity
00:00 +10°C° 0 mm 2 mps 744 mmHg 88%
01:00 +10°C° 0 mm 2 mps 744 mmHg 89%
02:00 +9°C° 0 mm 2 mps 744 mmHg 89%
03:00 +9°C° 0 mm 2 mps 744 mmHg 89%
04:00 +9°C° 0 mm 2 mps 743 mmHg 90%
05:00 +12°C° 0 mm 2 mps 744 mmHg 84%
06:00 +12°C° 0 mm 3 mps 744 mmHg 78%
07:00 +14°C° 0 mm 3 mps 744 mmHg 72%
08:00 +15°C° 0 mm 4 mps 744 mmHg 67%
09:00 +17°C° 0 mm 4 mps 744 mmHg 62%
10:00 +18°C° 0 mm 4 mps 743 mmHg 58%
11:00 +19°C° 0.1 mm 4 mps 743 mmHg 57%
12:00 +19°C° 0.1 mm 4 mps 743 mmHg 57%
13:00 +20°C° 0.1 mm 4 mps 743 mmHg 57%
14:00 +19°C° 0.1 mm 4 mps 742 mmHg 58%
15:00 +19°C° 0.1 mm 4 mps 742 mmHg 60%
16:00 +19°C° 0.1 mm 4 mps 742 mmHg 62%
17:00 +18°C° 0.1 mm 3 mps 741 mmHg 69%
18:00 +17°C° 0.1 mm 3 mps 741 mmHg 77%
19:00 +16°C° 0.1 mm 2 mps 741 mmHg 84%
20:00 +15°C° 0 mm 2 mps 741 mmHg 87%
21:00 +14°C° 0 mm 2 mps 741 mmHg 90%
22:00 +13°C° 0 mm 2 mps 741 mmHg 94%
23:00 +13°C° 0 mm 2 mps 741 mmHg 94%

Day after tomorrow, 14 July, Tuesday

Time Temperature Precipitation Wind Pressure Humidity
00:00 +12°C° 0 mm 2 mps 741 mmHg 95%
01:00 +12°C° 0 mm 2 mps 741 mmHg 95%
02:00 +12°C° 0 mm 1 mps 741 mmHg 95%
03:00 +11°C° 0 mm 1 mps 741 mmHg 95%
04:00 +11°C° 0 mm 1 mps 741 mmHg 96%
05:00 +13°C° 0 mm 1 mps 741 mmHg 91%
06:00 +15°C° 0 mm 1 mps 741 mmHg 85%
07:00 +16°C° 0 mm 1 mps 741 mmHg 80%
08:00 +19°C° 0.2 mm 1 mps 741 mmHg 75%
09:00 +20°C° 0.2 mm 1 mps 741 mmHg 69%
10:00 +20°C° 0.2 mm 2 mps 741 mmHg 64%
11:00 +20°C° 0.3 mm 2 mps 740 mmHg 63%
12:00 +21°C° 0.3 mm 2 mps 740 mmHg 62%
13:00 +21°C° 0.3 mm 2 mps 740 mmHg 61%
14:00 +21°C° 0.2 mm 2 mps 740 mmHg 61%
15:00 +21°C° 0.2 mm 2 mps 739 mmHg 60%
16:00 +22°C° 0.2 mm 1 mps 739 mmHg 60%
17:00 +21°C° 0.1 mm 1 mps 739 mmHg 65%
18:00 +20°C° 0.1 mm 1 mps 739 mmHg 71%
19:00 +19°C° 0.1 mm 1 mps 739 mmHg 76%
20:00 +16°C° 0 mm 0 mps 739 mmHg 78%
21:00 +14°C° 0 mm 0 mps 739 mmHg 81%
22:00 +13°C° 0 mm 0 mps 739 mmHg 84%
23:00 +13°C° 0 mm 0 mps 739 mmHg 84%

15 July, Wednesday

Time Temperature Precipitation Wind Pressure Humidity
00:00 +13°C° 0 mm 0 mps 739 mmHg 85%
01:00 +12°C° 0 mm 0 mps 738 mmHg 86%
02:00 +12°C° 0 mm 0 mps 738 mmHg 86%
03:00 +12°C° 0 mm 0 mps 738 mmHg 87%
04:00 +12°C° 0 mm 0 mps 738 mmHg 87%
05:00 +15°C° 0 mm 1 mps 738 mmHg 83%
06:00 +16°C° 0 mm 1 mps 738 mmHg 78%
07:00 +19°C° 0 mm 1 mps 738 mmHg 73%
08:00 +20°C° 0.2 mm 2 mps 738 mmHg 68%
09:00 +21°C° 0.2 mm 2 mps 738 mmHg 64%
10:00 +23°C° 0.2 mm 2 mps 738 mmHg 59%
11:00 +23°C° 0.4 mm 2 mps 737 mmHg 58%
12:00 +24°C° 0.4 mm 3 mps 737 mmHg 57%
13:00 +24°C° 0.4 mm 3 mps 737 mmHg 57%
14:00 +24°C° 0.1 mm 3 mps 736 mmHg 56%
15:00 +24°C° 0.1 mm 2 mps 736 mmHg 55%
16:00 +24°C° 0.1 mm 2 mps 736 mmHg 54%
17:00 +23°C° 0.1 mm 2 mps 736 mmHg 61%
18:00 +21°C° 0.1 mm 2 mps 735 mmHg 68%
19:00 +19°C° 0.1 mm 2 mps 735 mmHg 75%
20:00 +19°C° 0.1 mm 2 mps 735 mmHg 77%
21:00 +18°C° 0.1 mm 2 mps 735 mmHg 80%
22:00 +17°C° 0.1 mm 3 mps 735 mmHg 82%
23:00 +17°C° 0 mm 3 mps 735 mmHg 83%

16 July, Thursday

Time Temperature Precipitation Wind Pressure Humidity
00:00 +16°C° 0 mm 3 mps 734 mmHg 84%
01:00 +16°C° 0 mm 3 mps 734 mmHg 84%
02:00 +16°C° 0.3 mm 3 mps 734 mmHg 88%
03:00 +16°C° 0.3 mm 3 mps 734 mmHg 91%
04:00 +14°C° 0.3 mm 4 mps 734 mmHg 95%
05:00 +14°C° 0.6 mm 4 mps 734 mmHg 94%
06:00 +14°C° 0.6 mm 4 mps 734 mmHg 94%
07:00 +14°C° 0.6 mm 4 mps 734 mmHg 93%
08:00 +15°C° 0.1 mm 5 mps 734 mmHg 86%
09:00 +16°C° 0.1 mm 5 mps 735 mmHg 80%
10:00 +17°C° 0.1 mm 5 mps 735 mmHg 73%
11:00 +19°C° 0.3 mm 5 mps 735 mmHg 71%
12:00 +19°C° 0.3 mm 5 mps 735 mmHg 68%
13:00 +20°C° 0.3 mm 5 mps 735 mmHg 66%
14:00 +19°C° 0.6 mm 4 mps 735 mmHg 68%
15:00 +19°C° 0.6 mm 4 mps 735 mmHg 71%
16:00 +19°C° 0.6 mm 4 mps 735 mmHg 73%
17:00 +18°C° 0.4 mm 3 mps 735 mmHg 78%
18:00 +17°C° 0.4 mm 3 mps 735 mmHg 83%
19:00 +16°C° 0.4 mm 2 mps 735 mmHg 88%
20:00 +15°C° 0.1 mm 2 mps 735 mmHg 90%
21:00 +14°C° 0.1 mm 2 mps 735 mmHg 92%
22:00 +13°C° 0.1 mm 2 mps 735 mmHg 94%
23:00 +12°C° 0 mm 1 mps 735 mmHg 94%

17 July, Friday

Time Temperature Precipitation Wind Pressure Humidity
00:00 +12°C° 0 mm 1 mps 735 mmHg 94%
01:00 +12°C° 0 mm 1 mps 735 mmHg 93%
02:00 +12°C° 0 mm 1 mps 735 mmHg 94%
03:00 +10°C° 0 mm 0 mps 735 mmHg 94%
04:00 +10°C° 0 mm 0 mps 734 mmHg 94%
05:00 +12°C° 0.1 mm 1 mps 735 mmHg 92%
06:00 +13°C° 0.1 mm 1 mps 735 mmHg 90%
07:00 +14°C° 0.1 mm 1 mps 735 mmHg 89%
08:00 +15°C° 0.1 mm 1 mps 735 mmHg 86%
09:00 +15°C° 0.1 mm 1 mps 736 mmHg 83%
10:00 +16°C° 0.1 mm 2 mps 736 mmHg 80%
11:00 +17°C° 0.4 mm 2 mps 736 mmHg 76%
12:00 +18°C° 0.4 mm 3 mps 736 mmHg 72%
13:00 +19°C° 0.4 mm 3 mps 736 mmHg 69%
14:00 +19°C° 0.4 mm 3 mps 736 mmHg 69%
15:00 +20°C° 0.4 mm 3 mps 736 mmHg 70%
16:00 +20°C° 0.4 mm 3 mps 736 mmHg 70%
17:00 +18°C° 0.5 mm 3 mps 736 mmHg 77%
18:00 +17°C° 0.5 mm 3 mps 736 mmHg 83%
19:00 +16°C° 0.5 mm 3 mps 736 mmHg 90%
20:00 +15°C° 0 mm 2 mps 736 mmHg 91%
21:00 +15°C° 0 mm 2 mps 737 mmHg 92%
22:00 +15°C° 0 mm 1 mps 737 mmHg 93%
23:00 +14°C° 0 mm 2 mps 737 mmHg 94%
Show more